Location: Alphen
(52.1351°N, 4.6549°E)
Time: 01:47:15
(UTC+00:00)

Cosmos 1980 Rocket - Pass Details

Date: 27 January 2021
Orbit: 827 x 851 km, 71.0° (Epoch: 26 February)

Event Time Altitude Azimuth Distance (km) Brightness Sun altitude
Exits shadow 06:12:16 - 330° (NNW) 2,979 4.6 -11.7°
Reaches altitude 10° 06:14:35 10° 348° (NNW) 2,480 4.4 -11.4°
Maximum altitude 06:17:19 13° 17° (NNE) 2,242 4.4 -11.0°
Drops below altitude 10° 06:20:03 10° 46° (NE) 2,484 5.1 -10.6°
Sets 06:23:58 0° 73° (ENE) 3,421 6.4 -10.0°
